Time,TemperatureF,DewpointF,PressureIn,WindDirection,WindDirectionDegrees,WindSpeedMPH,WindSpeedGustMPH,Humidity,HourlyPrecipIn,Conditions,Clouds,dailyrainin,SolarRadiationWatts/m^2,SoftwareType,DateUTC
2013-08-13 00:02:00,69.0,69.0,-100.00,South,190,3.0,7.0,100,0.00,,,1.19,0.000000,,2013-08-13 05:02:00,
2013-08-13 00:42:00,69.0,69.0,-100.00,SW,217,3.0,5.0,100,0.00,,,1.19,0.000000,,2013-08-13 05:42:00,
2013-08-13 00:52:00,69.0,69.0,-100.00,SW,217,3.0,5.0,100,0.00,,,1.19,0.000000,,2013-08-13 05:52:00,
2013-08-13 01:02:00,69.0,69.0,-100.00,SW,217,3.0,5.0,100,0.00,,,1.19,0.000000,,2013-08-13 06:02:00,
2013-08-13 01:42:00,70.0,70.0,-100.00,SW,234,5.0,9.0,100,0.00,,,1.19,0.000000,,2013-08-13 06:42:00,
2013-08-13 01:53:00,70.0,70.0,-100.00,SW,234,5.0,9.0,100,0.00,,,1.19,0.000000,,2013-08-13 06:53:00,
2013-08-13 02:01:00,70.0,70.0,-100.00,SW,234,5.0,9.0,100,0.00,,,1.19,0.000000,,2013-08-13 07:01:00,
2013-08-13 02:42:00,71.0,71.0,-100.00,WSW,251,5.0,11.0,100,0.00,,,1.19,0.000000,,2013-08-13 07:42:00,
2013-08-13 02:52:00,71.0,71.0,-100.00,WSW,251,5.0,11.0,100,0.00,,,1.19,0.000000,,2013-08-13 07:52:00,
2013-08-13 03:02:00,71.0,71.0,-100.00,WSW,251,5.0,11.0,100,0.00,,,1.19,0.000000,,2013-08-13 08:02:00,
2013-08-13 03:42:00,72.0,72.0,-100.00,West,271,5.0,16.0,100,0.00,,,1.18,0.000000,,2013-08-13 08:42:00,
2013-08-13 03:52:00,72.0,72.0,-100.00,West,271,5.0,16.0,100,0.00,,,1.18,0.000000,,2013-08-13 08:52:00,
2013-08-13 04:01:00,72.0,72.0,-100.00,West,271,5.0,16.0,100,0.00,,,1.18,0.000000,,2013-08-13 09:01:00,
2013-08-13 04:43:00,72.0,72.0,-100.00,WNW,282,3.0,10.0,100,0.00,,,1.18,0.000000,,2013-08-13 09:43:00,
2013-08-13 04:54:00,72.0,72.0,-100.00,WNW,282,3.0,10.0,100,0.00,,,1.18,0.000000,,2013-08-13 09:54:00,
2013-08-13 05:03:00,72.0,72.0,-100.00,WNW,282,3.0,10.0,100,0.00,,,1.18,0.000000,,2013-08-13 10:03:00,
2013-08-13 05:43:00,71.0,71.0,-100.00,WSW,249,4.0,8.0,100,0.12,,,1.30,0.000000,,2013-08-13 10:43:00,
2013-08-13 05:53:00,71.0,71.0,-100.00,WSW,249,4.0,8.0,100,0.12,,,1.30,0.000000,,2013-08-13 10:53:00,
2013-08-13 06:02:00,71.0,71.0,-100.00,WSW,249,4.0,8.0,100,0.12,,,1.30,0.000000,,2013-08-13 11:02:00,
2013-08-13 06:42:00,71.0,71.0,-100.00,WNW,292,4.0,8.0,100,0.06,,,1.36,0.000000,,2013-08-13 11:42:00,
2013-08-13 06:52:00,71.0,71.0,-100.00,WNW,292,4.0,8.0,100,0.06,,,1.36,0.000000,,2013-08-13 11:52:00,
2013-08-13 07:01:00,71.0,71.0,-100.00,WNW,292,4.0,8.0,100,0.06,,,1.36,0.000000,,2013-08-13 12:01:00,
2013-08-13 07:42:00,70.0,70.0,-100.00,WNW,301,4.0,10.0,100,0.18,,,1.54,6.000000,,2013-08-13 12:42:00,
2013-08-13 07:52:00,70.0,70.0,-100.00,WNW,301,4.0,10.0,100,0.18,,,1.54,6.000000,,2013-08-13 12:52:00,
2013-08-13 08:01:00,70.0,70.0,-100.00,WNW,301,4.0,10.0,100,0.18,,,1.54,6.000000,,2013-08-13 13:01:00,
2013-08-13 08:42:00,70.0,70.0,-100.00,WNW,298,4.0,11.0,100,0.01,,,1.55,86.000000,,2013-08-13 13:42:00,
2013-08-13 08:52:00,70.0,70.0,-100.00,WNW,298,4.0,11.0,100,0.01,,,1.55,86.000000,,2013-08-13 13:52:00,
2013-08-13 09:02:00,70.0,70.0,-100.00,WNW,298,4.0,11.0,100,0.01,,,1.55,86.000000,,2013-08-13 14:02:00,
2013-08-13 09:42:00,72.0,70.0,-100.00,West,276,5.0,11.0,95,0.00,,,1.55,231.000000,,2013-08-13 14:42:00,
2013-08-13 09:52:00,72.0,70.0,-100.00,West,276,5.0,11.0,95,0.00,,,1.55,231.000000,,2013-08-13 14:52:00,
2013-08-13 10:02:00,72.0,70.0,-100.00,West,276,5.0,11.0,95,0.00,,,1.55,231.000000,,2013-08-13 15:02:00,
2013-08-13 10:44:00,74.0,71.0,-100.00,West,279,4.0,11.0,90,0.00,,,1.55,298.000000,,2013-08-13 15:44:00,
2013-08-13 10:54:00,74.0,71.0,-100.00,West,279,4.0,11.0,90,0.00,,,1.55,298.000000,,2013-08-13 15:54:00,
2013-08-13 11:04:00,74.0,71.0,-100.00,West,279,4.0,11.0,90,0.00,,,1.55,298.000000,,2013-08-13 16:04:00,
2013-08-13 11:06:00,76.0,70.0,-100.00,WNW,284,5.0,12.0,83,0.00,,,1.55,471.000000,,2013-08-13 16:06:00,
2013-08-13 11:45:00,76.0,70.0,-100.00,WNW,284,5.0,12.0,83,0.00,,,1.55,471.000000,,2013-08-13 16:45:00,
2013-08-13 11:54:00,76.0,70.0,-100.00,WNW,284,5.0,12.0,83,0.00,,,1.55,471.000000,,2013-08-13 16:54:00,
2013-08-13 12:46:00,-999.0,-99.9,-100.00,WNW,298,5.0,13.0,-999,0.00,,,1.55,457.000000,,2013-08-13 17:46:00,
2013-08-13 12:56:00,75.0,69.0,-100.00,WNW,298,5.0,13.0,83,0.00,,,1.55,457.000000,,2013-08-13 17:56:00,
2013-08-13 13:05:00,75.0,69.0,-100.00,WNW,298,5.0,13.0,83,0.00,,,1.55,457.000000,,2013-08-13 18:05:00,
2013-08-13 13:45:00,80.0,71.0,-100.00,WNW,292,5.0,14.0,73,0.00,,,1.52,818.000000,,2013-08-13 18:45:00,
2013-08-13 13:56:00,80.0,71.0,-100.00,WNW,292,5.0,14.0,73,0.00,,,1.52,818.000000,,2013-08-13 18:56:00,
2013-08-13 14:04:00,80.0,71.0,-100.00,WNW,292,5.0,14.0,73,0.00,,,1.52,818.000000,,2013-08-13 19:04:00,
2013-08-13 14:44:00,78.0,70.0,-100.00,NW,304,5.0,14.0,76,0.00,,,1.30,646.000000,,2013-08-13 19:44:00,
2013-08-13 14:55:00,78.0,70.0,-100.00,NW,304,5.0,14.0,76,0.00,,,1.30,646.000000,,2013-08-13 19:55:00,
2013-08-13 15:04:00,78.0,70.0,-100.00,NW,304,5.0,14.0,76,0.00,,,1.30,646.000000,,2013-08-13 20:04:00,
2013-08-13 15:45:00,79.0,68.0,-100.00,NW,304,4.0,16.0,70,0.00,,,1.30,725.000000,,2013-08-13 20:45:00,
2013-08-13 15:53:00,79.0,68.0,-100.00,NW,304,4.0,16.0,70,0.00,,,1.30,725.000000,,2013-08-13 20:53:00,
2013-08-13 16:01:00,79.0,68.0,-100.00,NW,304,4.0,16.0,70,0.00,,,1.30,725.000000,,2013-08-13 21:01:00,
2013-08-13 16:46:00,81.0,69.0,-100.00,WNW,300,4.0,12.0,66,0.00,,,1.30,639.000000,,2013-08-13 21:46:00,
2013-08-13 16:54:00,81.0,69.0,-100.00,WNW,300,4.0,12.0,66,0.00,,,1.30,639.000000,,2013-08-13 21:54:00,
2013-08-13 17:04:00,81.0,69.0,-100.00,WNW,300,4.0,12.0,66,0.00,,,1.30,639.000000,,2013-08-13 22:04:00,
2013-08-13 17:50:00,74.0,68.0,-100.00,North,350,5.0,18.0,82,0.00,,,1.30,243.000000,,2013-08-13 22:50:00,
2013-08-13 17:57:00,74.0,68.0,-100.00,North,350,5.0,18.0,82,0.00,,,1.30,243.000000,,2013-08-13 22:57:00,
2013-08-13 18:04:00,74.0,68.0,-100.00,North,350,5.0,18.0,82,0.00,,,1.30,243.000000,,2013-08-13 23:04:00,
2013-08-13 18:47:00,73.0,69.0,-100.00,NNW,328,4.0,9.0,87,0.00,,,1.30,142.000000,,2013-08-13 23:47:00,
2013-08-13 18:57:00,73.0,69.0,-100.00,NNW,328,4.0,9.0,87,0.00,,,1.30,142.000000,,2013-08-13 23:57:00,
2013-08-13 19:04:00,73.0,69.0,-100.00,NNW,328,4.0,9.0,87,0.00,,,1.30,142.000000,,2013-08-14 00:04:00,
2013-08-13 19:42:00,71.0,68.0,-100.00,NNW,332,3.0,7.0,91,0.00,,,1.30,72.000000,,2013-08-14 00:42:00,
2013-08-13 19:52:00,71.0,68.0,-100.00,NNW,332,3.0,7.0,91,0.00,,,1.30,72.000000,,2013-08-14 00:52:00,
2013-08-13 20:01:00,71.0,68.0,-100.00,NNW,332,3.0,7.0,91,0.00,,,1.30,72.000000,,2013-08-14 01:01:00,
2013-08-13 20:42:00,69.0,68.0,-100.00,NNW,336,4.0,6.0,96,0.00,,,1.30,3.000000,,2013-08-14 01:42:00,
2013-08-13 20:52:00,69.0,68.0,-100.00,NNW,336,4.0,6.0,96,0.00,,,1.30,3.000000,,2013-08-14 01:52:00,
2013-08-13 21:02:00,69.0,68.0,-100.00,NNW,336,4.0,6.0,96,0.00,,,1.30,3.000000,,2013-08-14 02:02:00,
2013-08-13 21:42:00,68.0,67.0,-100.00,NNW,336,3.0,6.0,98,0.00,,,0.73,0.000000,,2013-08-14 02:42:00,
2013-08-13 21:52:00,68.0,67.0,-100.00,NNW,336,3.0,6.0,98,0.00,,,0.73,0.000000,,2013-08-14 02:52:00,
2013-08-13 22:01:00,68.0,67.0,-100.00,NNW,336,3.0,6.0,98,0.00,,,0.73,0.000000,,2013-08-14 03:01:00,
2013-08-13 22:43:00,69.0,68.0,-100.00,NW,323,3.0,4.0,98,0.00,,,0.37,0.000000,,2013-08-14 03:43:00,
2013-08-13 22:53:00,69.0,68.0,-100.00,NW,323,3.0,4.0,98,0.00,,,0.37,0.000000,,2013-08-14 03:53:00,
2013-08-13 23:03:00,69.0,68.0,-100.00,NW,323,3.0,4.0,98,0.00,,,0.37,0.000000,,2013-08-14 04:03:00,
2013-08-13 23:42:00,68.0,68.0,-100.00,NNW,334,4.0,7.0,99,0.00,,,0.37,0.000000,,2013-08-14 04:42:00,
2013-08-13 23:52:00,68.0,68.0,-100.00,NNW,334,4.0,7.0,99,0.00,,,0.37,0.000000,,2013-08-14 04:52:00,